,,PA_Meas_PMT16A,,PR_Meas_QMR101_102,,RH_Meas_QMH101,,SR_Meas_QMS101,,TA_Meas_QMH101,,GenWind,,GenWind,
time,status,PA,status,PR,status,RH,status,SR,status,TA,status,DirAvg,status,SpdAvg,
2013-08-29, 00:00:05,VALID,919.538,VALID,0,VALID,96.6192,VALID,0,VALID,20.1708,VALID,15,VALID,0,
2013-08-29, 00:01:05,VALID,919.504,VALID,0,VALID,96.6497,VALID,0,VALID,20.1513,VALID,22,VALID,0,
2013-08-29, 00:02:05,VALID,919.532,VALID,0,VALID,96.6497,VALID,0,VALID,20.1903,VALID,22,VALID,0,
2013-08-29, 00:03:05,VALID,919.51,VALID,0,VALID,96.6344,VALID,0,VALID,20.2114,VALID,22,VALID,0,
2013-08-29, 00:04:05,VALID,919.489,VALID,0,VALID,96.6649,VALID,0,VALID,20.1903,VALID,22,VALID,0,
2013-08-29, 00:05:05,VALID,919.482,VALID,0,VALID,96.6573,VALID,0,VALID,20.1708,VALID,8,VALID,0,
2013-08-29, 00:06:05,VALID,919.482,VALID,0,VALID,96.6192,VALID,0,VALID,20.1318,VALID,351,VALID,0,
2013-08-29, 00:07:05,VALID,919.469,VALID,0,VALID,96.6268,VALID,0,VALID,20.0928,VALID,353,VALID,0,
2013-08-29, 00:08:05,VALID,919.469,VALID,0,VALID,96.6268,VALID,0,VALID,20.0538,VALID,360,VALID,0,
2013-08-29, 00:09:05,VALID,919.495,VALID,0,VALID,96.6268,VALID,0,VALID,20.0343,VALID,18,VALID,0,
2013-08-29, 00:10:05,VALID,919.506,VALID,0,VALID,96.6192,VALID,0,VALID,20.0148,VALID,12,VALID,0,
2013-08-29, 00:11:05,VALID,919.502,VALID,0,VALID,96.6268,VALID,0,VALID,20.0148,VALID,26,VALID,0,
2013-08-29, 00:12:05,VALID,919.531,VALID,0,VALID,96.6268,VALID,0,VALID,20.0553,VALID,21,VALID,0,
2013-08-29, 00:13:05,VALID,919.548,VALID,0,VALID,96.6115,VALID,0,VALID,20.0148,VALID,19,VALID,0,
2013-08-29, 00:14:05,VALID,919.519,VALID,0,VALID,96.6344,VALID,0,VALID,20.0148,VALID,19,VALID,0,
2013-08-29, 00:15:05,VALID,919.55,VALID,0,VALID,96.642,VALID,0,VALID,20.0538,VALID,19,VALID,0,
2013-08-29, 00:16:05,VALID,919.546,VALID,0,VALID,96.6497,VALID,0,VALID,20.0733,VALID,19,VALID,0,
2013-08-29, 00:17:05,VALID,919.548,VALID,0,VALID,96.6344,VALID,0,VALID,20.0343,VALID,19,VALID,0,
2013-08-29, 00:18:05,VALID,919.532,VALID,0,VALID,96.6497,VALID,0,VALID,20.0148,VALID,19,VALID,0,
2013-08-29, 00:19:05,VALID,919.518,VALID,0,VALID,96.6344,VALID,0,VALID,20.0343,VALID,19,VALID,0,
2013-08-29, 00:20:05,VALID,919.508,VALID,0,VALID,96.6573,VALID,0,VALID,20.0343,VALID,19,VALID,0,
2013-08-29, 00:21:05,VALID,919.54,VALID,0,VALID,96.642,VALID,0,VALID,20.0343,VALID,19,VALID,0,
2013-08-29, 00:22:05,VALID,919.529,VALID,0,VALID,96.6497,VALID,0,VALID,20.0343,VALID,19,VALID,0,
2013-08-29, 00:23:05,VALID,919.504,VALID,0,VALID,96.6268,VALID,0,VALID,20.0358,VALID,19,VALID,0,
2013-08-29, 00:24:05,VALID,919.504,VALID,0,VALID,96.642,VALID,0,VALID,20.0553,VALID,19,VALID,0,
2013-08-29, 00:25:05,VALID,919.484,VALID,0,VALID,96.642,VALID,0,VALID,20.0538,VALID,19,VALID,0,
2013-08-29, 00:26:05,VALID,919.484,VALID,0,VALID,96.6573,VALID,0,VALID,20.0733,VALID,19,VALID,0,
2013-08-29, 00:27:05,VALID,919.445,VALID,0,VALID,96.642,VALID,0,VALID,20.0749,VALID,19,VALID,0,
2013-08-29, 00:28:05,VALID,919.438,VALID,0,VALID,96.642,VALID,0,VALID,20.0148,VALID,19,VALID,0,
2013-08-29, 00:29:05,VALID,919.445,VALID,0,VALID,96.6573,VALID,0.107441,VALID,20.0328,VALID,19,VALID,0,
2013-08-29, 00:30:05,VALID,919.413,VALID,0,VALID,96.642,VALID,0.107441,VALID,20.0328,VALID,19,VALID,0,
2013-08-29, 00:31:05,VALID,919.387,VALID,0,VALID,96.6573,VALID,0.107441,VALID,20.0523,VALID,19,VALID,0,
2013-08-29, 00:32:05,VALID,919.381,VALID,0,VALID,96.6573,VALID,0.107441,VALID,20.0523,VALID,19,VALID,0,
2013-08-29, 00:33:05,VALID,919.362,VALID,0,VALID,96.6649,VALID,0.107441,VALID,20.0328,VALID,19,VALID,0,
2013-08-29, 00:34:05,VALID,919.332,VALID,0,VALID,96.6573,VALID,0,VALID,20.0133,VALID,19,VALID,0,
2013-08-29, 00:35:05,VALID,919.334,VALID,0,VALID,96.6725,VALID,0,VALID,20.0523,VALID,19,VALID,0,
2013-08-29, 00:36:05,VALID,919.311,VALID,0,VALID,96.6725,VALID,0.107441,VALID,20.0718,VALID,19,VALID,0,
2013-08-29, 00:37:05,VALID,919.297,VALID,0,VALID,96.6878,VALID,0.107441,VALID,20.1123,VALID,19,VALID,0,
2013-08-29, 00:38:05,VALID,919.278,VALID,0,VALID,96.6725,VALID,0.107441,VALID,20.0718,VALID,19,VALID,0,
2013-08-29, 00:39:05,VALID,919.246,VALID,0,VALID,96.6725,VALID,0,VALID,20.0718,VALID,19,VALID,0,
2013-08-29, 00:40:05,VALID,919.229,VALID,0,VALID,96.6649,VALID,0,VALID,20.0523,VALID,19,VALID,0,
2013-08-29, 00:41:05,VALID,919.25,VALID,0,VALID,96.6878,VALID,0,VALID,20.0523,VALID,19,VALID,0,
2013-08-29, 00:42:05,VALID,919.251,VALID,0,VALID,96.6802,VALID,0.107441,VALID,20.0328,VALID,19,VALID,0,
2013-08-29, 00:43:05,VALID,919.218,VALID,0,VALID,96.6802,VALID,0.107441,VALID,20.0538,VALID,19,VALID,0,
2013-08-29, 00:44:05,VALID,919.23,VALID,0,VALID,96.6878,VALID,0,VALID,19.9953,VALID,19,VALID,0,
2013-08-29, 00:45:05,VALID,919.225,VALID,0,VALID,96.6802,VALID,0,VALID,20.0163,VALID,19,VALID,0,
2013-08-29, 00:46:05,VALID,919.233,VALID,0,VALID,96.6878,VALID,0,VALID,19.9953,VALID,19,VALID,0,
2013-08-29, 00:47:05,VALID,919.232,VALID,0,VALID,96.7107,VALID,0,VALID,19.9953,VALID,19,VALID,0,
2013-08-29, 00:48:05,VALID,919.24,VALID,0,VALID,96.6878,VALID,0,VALID,19.9758,VALID,19,VALID,0,
2013-08-29, 00:49:05,VALID,919.212,VALID,0,VALID,96.703,VALID,0,VALID,19.9758,VALID,19,VALID,0,
2013-08-29, 00:50:05,VALID,919.17,VALID,0,VALID,96.7107,VALID,0,VALID,19.9968,VALID,19,VALID,0,
2013-08-29, 00:51:05,VALID,919.144,VALID,0,VALID,96.7107,VALID,0,VALID,19.9368,VALID,19,VALID,0,
2013-08-29, 00:52:05,VALID,919.116,VALID,0,VALID,96.7107,VALID,0,VALID,19.9563,VALID,19,VALID,0,
2013-08-29, 00:53:05,VALID,919.077,VALID,0,VALID,96.7183,VALID,0,VALID,19.9563,VALID,19,VALID,0,
2013-08-29, 00:54:05,VALID,919.035,VALID,0,VALID,96.7335,VALID,0,VALID,19.9563,VALID,19,VALID,0,
2013-08-29, 00:55:05,VALID,918.978,VALID,0,VALID,96.7183,VALID,0,VALID,19.9578,VALID,19,VALID,0,
2013-08-29, 00:56:05,VALID,918.928,VALID,0,VALID,96.7183,VALID,0,VALID,19.9773,VALID,19,VALID,0,
2013-08-29, 00:57:05,VALID,918.916,VALID,0,VALID,96.7411,VALID,0,VALID,19.9563,VALID,19,VALID,0,
2013-08-29, 00:58:05,VALID,918.89,VALID,0,VALID,96.7488,VALID,0,VALID,19.9563,VALID,19,VALID,0,
2013-08-29, 00:59:05,VALID,918.862,VALID,0,VALID,96.7335,VALID,0,VALID,19.9563,VALID,19,VALID,0,
2013-08-29, 01:00:05,VALID,918.887,VALID,0,VALID,96.7564,VALID,0,VALID,19.9758,VALID,19,VALID,0,
2013-08-29, 01:01:05,VALID,918.861,VALID,0,VALID,96.7411,VALID,0,VALID,19.9758,VALID,19,VALID,0,
2013-08-29, 01:02:05,VALID,918.87,VALID,0,VALID,96.7488,VALID,0,VALID,19.9953,VALID,19,VALID,0,
2013-08-29, 01:03:05,VALID,918.84,VALID,0,VALID,96.764,VALID,0,VALID,20.0148,VALID,19,VALID,0,
2013-08-29, 01:04:05,VALID,918.855,VALID,0,VALID,96.7564,VALID,0,VALID,20.0358,VALID,19,VALID,0,
2013-08-29, 01:05:05,VALID,918.882,VALID,0,VALID,96.764,VALID,0,VALID,20.0148,VALID,19,VALID,0,
2013-08-29, 01:06:05,VALID,918.862,VALID,0,VALID,96.7716,VALID,0,VALID,20.0343,VALID,19,VALID,0,
2013-08-29, 01:07:05,VALID,918.88,VALID,0,VALID,96.7716,VALID,0,VALID,20.0538,VALID,19,VALID,0,
2013-08-29, 01:08:05,VALID,918.858,VALID,0,VALID,96.764,VALID,0,VALID,20.0538,VALID,19,VALID,0,
2013-08-29, 01:09:05,VALID,918.839,VALID,0,VALID,96.764,VALID,0,VALID,20.0538,VALID,19,VALID,0,
2013-08-29, 01:10:05,VALID,918.852,VALID,0,VALID,96.7564,VALID,0,VALID,20.0538,VALID,19,VALID,0,
2013-08-29, 01:11:05,VALID,918.843,VALID,0,VALID,96.7793,VALID,0,VALID,20.0343,VALID,19,VALID,0,
2013-08-29, 01:12:05,VALID,918.829,VALID,0,VALID,96.764,VALID,0,VALID,20.0538,VALID,19,VALID,0,
2013-08-29, 01:13:05,VALID,918.79,VALID,0,VALID,96.7793,VALID,0,VALID,20.0343,VALID,19,VALID,0,
2013-08-29, 01:14:05,VALID,918.772,VALID,0,VALID,96.7793,VALID,0,VALID,20.0538,VALID,19,VALID,0,
2013-08-29, 01:15:05,VALID,918.744,VALID,0,VALID,96.7793,VALID,0,VALID,20.0343,VALID,19,VALID,0,
2013-08-29, 01:16:05,VALID,918.697,VALID,0,VALID,96.7716,VALID,0,VALID,20.0343,VALID,19,VALID,0,
2013-08-29, 01:17:05,VALID,918.695,VALID,0,VALID,96.7716,VALID,0,VALID,20.0343,VALID,19,VALID,0,
2013-08-29, 01:18:05,VALID,918.638,VALID,0,VALID,96.7869,VALID,0,VALID,20.0538,VALID,19,VALID,0,
2013-08-29, 01:19:05,VALID,918.64,VALID,0,VALID,96.7716,VALID,0,VALID,20.0343,VALID,19,VALID,0,
2013-08-29, 01:20:05,VALID,918.582,VALID,0,VALID,96.7793,VALID,0,VALID,20.0733,VALID,19,VALID,0,
2013-08-29, 01:21:05,VALID,918.588,VALID,0,VALID,96.7793,VALID,0,VALID,20.0928,VALID,19,VALID,0,
2013-08-29, 01:22:05,VALID,918.567,VALID,0,VALID,96.7945,VALID,0,VALID,20.1123,VALID,19,VALID,0,
2013-08-29, 01:23:05,VALID,918.591,VALID,0,VALID,96.8021,VALID,0,VALID,20.0928,VALID,19,VALID,0,
2013-08-29, 01:24:05,VALID,918.594,VALID,0,VALID,96.764,VALID,0,VALID,20.0733,VALID,19,VALID,0,
2013-08-29, 01:25:05,VALID,918.584,VALID,0,VALID,96.8021,VALID,0.107441,VALID,20.0928,VALID,19,VALID,0,
2013-08-29, 01:26:05,VALID,918.594,VALID,0,VALID,96.7945,VALID,0,VALID,20.1123,VALID,19,VALID,0,
2013-08-29, 01:27:05,VALID,918.614,VALID,0,VALID,96.7945,VALID,0,VALID,20.1318,VALID,19,VALID,0,
2013-08-29, 01:28:05,VALID,918.634,VALID,0,VALID,96.8021,VALID,0,VALID,20.1513,VALID,19,VALID,0,
2013-08-29, 01:29:05,VALID,918.624,VALID,0,VALID,96.8098,VALID,0,VALID,20.1708,VALID,21,VALID,0,
2013-08-29, 01:30:05,VALID,918.639,VALID,0,VALID,96.7945,VALID,0,VALID,20.1903,VALID,33,VALID,0,
2013-08-29, 01:31:05,VALID,918.656,VALID,0,VALID,96.8021,VALID,0,VALID,20.1903,VALID,27,VALID,0,
2013-08-29, 01:32:05,VALID,918.641,VALID,0,VALID,96.7945,VALID,0,VALID,20.1513,VALID,20,VALID,0,
2013-08-29, 01:33:05,VALID,918.645,VALID,0,VALID,96.7945,VALID,0,VALID,20.1513,VALID,20,VALID,0,
2013-08-29, 01:34:05,VALID,918.647,VALID,0,VALID,96.8021,VALID,0,VALID,20.1513,VALID,20,VALID,0,
2013-08-29, 01:35:05,VALID,918.653,VALID,0,VALID,96.8021,VALID,0,VALID,20.1318,VALID,20,VALID,0,
2013-08-29, 01:36:05,VALID,918.638,VALID,0,VALID,96.7869,VALID,0,VALID,20.1123,VALID,20,VALID,0,
2013-08-29, 01:37:05,VALID,918.625,VALID,0,VALID,96.8021,VALID,0,VALID,20.1123,VALID,20,VALID,0,
2013-08-29, 01:38:05,VALID,918.62,VALID,0,VALID,96.8174,VALID,0,VALID,20.1123,VALID,20,VALID,0,
2013-08-29, 01:39:05,VALID,918.58,VALID,0,VALID,96.8098,VALID,0,VALID,20.1123,VALID,20,VALID,0,
2013-08-29, 01:40:05,VALID,918.617,VALID,0,VALID,96.8021,VALID,0,VALID,20.1318,VALID,20,VALID,0,
2013-08-29, 01:41:05,VALID,918.584,VALID,0,VALID,96.8174,VALID,0,VALID,20.1513,VALID,20,VALID,0,
2013-08-29, 01:42:05,VALID,918.57,VALID,0,VALID,96.8098,VALID,0,VALID,20.1513,VALID,20,VALID,0,
2013-08-29, 01:43:05,VALID,918.541,VALID,0,VALID,96.8021,VALID,0,VALID,20.1513,VALID,20,VALID,0,
2013-08-29, 01:44:05,VALID,918.547,VALID,0,VALID,96.8174,VALID,0,VALID,20.1529,VALID,20,VALID,0,
2013-08-29, 01:45:05,VALID,918.539,VALID,0,VALID,96.825,VALID,0,VALID,20.1529,VALID,20,VALID,0,
2013-08-29, 01:46:05,VALID,918.526,VALID,0,VALID,96.8174,VALID,0,VALID,20.1123,VALID,20,VALID,0,
2013-08-29, 01:47:05,VALID,918.495,VALID,0,VALID,96.8021,VALID,0,VALID,20.1123,VALID,20,VALID,0,
2013-08-29, 01:48:05,VALID,918.469,VALID,0,VALID,96.825,VALID,0,VALID,20.1123,VALID,20,VALID,0,
2013-08-29, 01:49:05,VALID,918.49,VALID,0,VALID,96.8174,VALID,0,VALID,20.0733,VALID,20,VALID,0,
2013-08-29, 01:50:05,VALID,918.516,VALID,0,VALID,96.8174,VALID,0,VALID,20.0733,VALID,20,VALID,0,
2013-08-29, 01:51:05,VALID,918.495,VALID,0,VALID,96.8098,VALID,0,VALID,20.0928,VALID,20,VALID,0,
2013-08-29, 01:52:05,VALID,918.497,VALID,0,VALID,96.8174,VALID,0,VALID,20.1123,VALID,20,VALID,0,
2013-08-29, 01:53:05,VALID,918.492,VALID,0,VALID,96.825,VALID,0,VALID,20.1139,VALID,8,VALID,0,
2013-08-29, 01:54:05,VALID,918.484,VALID,0,VALID,96.825,VALID,0,VALID,20.0733,VALID,351,VALID,0,
2013-08-29, 01:55:05,VALID,918.497,VALID,0,VALID,96.8174,VALID,0,VALID,20.0733,VALID,351,VALID,0,
2013-08-29, 01:56:05,VALID,918.493,VALID,0,VALID,96.8326,VALID,0,VALID,20.0944,VALID,350,VALID,0,
2013-08-29, 01:57:05,VALID,918.497,VALID,0,VALID,96.8174,VALID,0,VALID,20.0944,VALID,350,VALID,0,
2013-08-29, 01:58:05,VALID,918.447,VALID,0,VALID,96.825,VALID,0,VALID,20.1123,VALID,351,VALID,0,
2013-08-29, 01:59:05,VALID,918.448,VALID,0,VALID,96.8326,VALID,0,VALID,20.1318,VALID,350,VALID,0,
2013-08-29, 02:00:05,VALID,918.405,VALID,0,VALID,96.8479,VALID,0,VALID,20.1123,VALID,351,VALID,0,
2013-08-29, 02:01:05,VALID,918.427,VALID,0,VALID,96.825,VALID,0,VALID,20.0733,VALID,16,VALID,0,
2013-08-29, 02:02:05,VALID,918.417,VALID,0,VALID,96.8326,VALID,0,VALID,20.1123,VALID,23,VALID,0,
2013-08-29, 02:03:05,VALID,918.404,VALID,0,VALID,96.8326,VALID,0,VALID,20.1123,VALID,17,VALID,0,
2013-08-29, 02:04:05,VALID,918.409,VALID,0,VALID,96.8555,VALID,0,VALID,20.1123,VALID,16,VALID,0,
2013-08-29, 02:05:05,VALID,918.453,VALID,0,VALID,96.8707,VALID,0,VALID,20.1123,VALID,21,VALID,0,
2013-08-29, 02:06:05,VALID,918.432,VALID,0,VALID,96.8403,VALID,0,VALID,20.0928,VALID,1,VALID,0,
2013-08-29, 02:07:05,VALID,918.442,VALID,0,VALID,96.8479,VALID,0,VALID,20.0538,VALID,10,VALID,0,
2013-08-29, 02:08:05,VALID,918.482,VALID,0,VALID,96.8479,VALID,0,VALID,20.0538,VALID,21,VALID,0,
2013-08-29, 02:09:05,VALID,918.483,VALID,0,VALID,96.8707,VALID,0,VALID,20.0749,VALID,21,VALID,0,
2013-08-29, 02:10:05,VALID,918.48,VALID,0,VALID,96.8479,VALID,0,VALID,20.0733,VALID,21,VALID,0,
2013-08-29, 02:11:05,VALID,918.494,VALID,0,VALID,96.8631,VALID,0,VALID,20.0733,VALID,16,VALID,0,
2013-08-29, 02:12:05,VALID,918.489,VALID,0,VALID,96.8555,VALID,0,VALID,20.0928,VALID,16,VALID,0,
2013-08-29, 02:13:05,VALID,918.481,VALID,0,VALID,96.8707,VALID,0,VALID,20.0928,VALID,16,VALID,0,
2013-08-29, 02:14:05,VALID,918.45,VALID,0,VALID,96.8555,VALID,0,VALID,20.0733,VALID,356,VALID,0,
2013-08-29, 02:15:05,VALID,918.465,VALID,0,VALID,96.8555,VALID,0,VALID,20.0733,VALID,18,VALID,0,
2013-08-29, 02:16:05,VALID,918.461,VALID,0,VALID,96.8479,VALID,0,VALID,20.0538,VALID,358,VALID,0,
2013-08-29, 02:17:05,VALID,918.462,VALID,0,VALID,96.8707,VALID,0,VALID,20.0343,VALID,17,VALID,0,
2013-08-29, 02:18:05,VALID,918.454,VALID,0,VALID,96.8479,VALID,0,VALID,20.0343,VALID,11,VALID,0,
2013-08-29, 02:19:05,VALID,918.486,VALID,0,VALID,96.8555,VALID,0,VALID,20.0358,VALID,352,VALID,0,
2013-08-29, 02:20:05,VALID,918.496,VALID,0,VALID,96.886,VALID,0,VALID,20.0148,VALID,348,VALID,0,
2013-08-29, 02:21:05,VALID,918.508,VALID,0,VALID,96.8784,VALID,0,VALID,20.0148,VALID,348,VALID,0,
2013-08-29, 02:22:05,VALID,918.455,VALID,0,VALID,96.886,VALID,0,VALID,20.0148,VALID,17,VALID,0,
2013-08-29, 02:23:05,VALID,918.475,VALID,0,VALID,96.8631,VALID,0,VALID,20.0733,VALID,14,VALID,0,
2013-08-29, 02:24:05,VALID,918.447,VALID,0,VALID,96.8707,VALID,0,VALID,20.0553,VALID,348,VALID,0,
2013-08-29, 02:25:05,VALID,918.452,VALID,0,VALID,96.8784,VALID,0,VALID,20.0148,VALID,358,VALID,0,
2013-08-29, 02:26:05,VALID,918.431,VALID,0,VALID,96.8707,VALID,0,VALID,20.0148,VALID,339,VALID,0,
2013-08-29, 02:27:05,VALID,918.416,VALID,0,VALID,96.886,VALID,0,VALID,19.9968,VALID,358,VALID,0,
2013-08-29, 02:28:05,VALID,918.401,VALID,0,VALID,96.886,VALID,0,VALID,19.9953,VALID,4,VALID,0,
2013-08-29, 02:29:05,VALID,918.417,VALID,0,VALID,96.886,VALID,0,VALID,19.9773,VALID,10,VALID,0,
2013-08-29, 02:30:05,VALID,918.419,VALID,0,VALID,96.886,VALID,0,VALID,19.9578,VALID,357,VALID,0,
2013-08-29, 02:31:05,VALID,918.406,VALID,0,VALID,96.8707,VALID,0,VALID,19.9188,VALID,359,VALID,0,
2013-08-29, 02:32:05,VALID,918.424,VALID,0,VALID,96.8936,VALID,0,VALID,19.9383,VALID,23,VALID,0,
2013-08-29, 02:33:05,VALID,918.419,VALID,0,VALID,96.8936,VALID,0,VALID,19.9188,VALID,7,VALID,0,
2013-08-29, 02:34:05,VALID,918.393,VALID,0,VALID,96.8936,VALID,0,VALID,19.9383,VALID,25,VALID,0,
2013-08-29, 02:35:05,VALID,918.393,VALID,0,VALID,96.886,VALID,0,VALID,19.9383,VALID,21,VALID,0,
2013-08-29, 02:36:05,VALID,918.403,VALID,0,VALID,96.886,VALID,0,VALID,19.8783,VALID,25,VALID,0,
2013-08-29, 02:37:05,VALID,918.381,VALID,0,VALID,96.9012,VALID,0,VALID,19.8993,VALID,357,VALID,0,
2013-08-29, 02:38:05,VALID,918.396,VALID,0,VALID,96.9089,VALID,0,VALID,19.8798,VALID,344,VALID,0,
2013-08-29, 02:39:05,VALID,918.382,VALID,0,VALID,96.8936,VALID,0,VALID,19.8798,VALID,354,VALID,0,
2013-08-29, 02:40:04,VALID,918.398,VALID,0,VALID,96.8936,VALID,0,VALID,19.8783,VALID,354,VALID,0,
2013-08-29, 02:41:04,VALID,918.404,VALID,0,VALID,96.9089,VALID,0,VALID,19.8978,VALID,354,VALID,0,
2013-08-29, 02:42:04,VALID,918.415,VALID,0,VALID,96.9012,VALID,0,VALID,19.9368,VALID,354,VALID,0,
2013-08-29, 02:43:04,VALID,918.436,VALID,0,VALID,96.9089,VALID,0,VALID,19.9188,VALID,359,VALID,0,
2013-08-29, 02:44:04,VALID,918.399,VALID,0,VALID,96.8936,VALID,0,VALID,19.9188,VALID,12,VALID,0,
2013-08-29, 02:45:04,VALID,918.412,VALID,0,VALID,96.9241,VALID,0,VALID,19.8783,VALID,5,VALID,0,
2013-08-29, 02:46:04,VALID,918.414,VALID,0,VALID,96.9012,VALID,0,VALID,19.8798,VALID,320,VALID,0,
2013-08-29, 02:47:04,VALID,918.382,VALID,0,VALID,96.8936,VALID,0,VALID,19.8393,VALID,350,VALID,0,
2013-08-29, 02:48:04,VALID,918.383,VALID,0,VALID,96.9012,VALID,0,VALID,19.8408,VALID,23,VALID,0,
2013-08-29, 02:49:04,VALID,918.376,VALID,0,VALID,96.9012,VALID,0,VALID,19.8213,VALID,358,VALID,0,
2013-08-29, 02:50:04,VALID,918.357,VALID,0,VALID,96.9165,VALID,0,VALID,19.8213,VALID,5,VALID,0,
2013-08-29, 02:51:04,VALID,918.384,VALID,0,VALID,96.8936,VALID,0,VALID,19.8003,VALID,339,VALID,0,
2013-08-29, 02:52:04,VALID,918.35,VALID,0,VALID,96.9089,VALID,0,VALID,19.8213,VALID,3,VALID,0,
2013-08-29, 02:53:04,VALID,918.322,VALID,0,VALID,96.9012,VALID,0,VALID,19.8003,VALID,334,VALID,0,
2013-08-29, 02:54:04,VALID,918.313,VALID,0,VALID,96.9165,VALID,0,VALID,19.8003,VALID,342,VALID,0,
2013-08-29, 02:55:04,VALID,918.327,VALID,0,VALID,96.886,VALID,0,VALID,19.8408,VALID,351,VALID,0,
2013-08-29, 02:56:04,VALID,918.303,VALID,0,VALID,96.8936,VALID,0,VALID,19.8198,VALID,16,VALID,0,
2013-08-29, 02:57:04,VALID,918.311,VALID,0,VALID,96.8936,VALID,0,VALID,19.8018,VALID,8,VALID,0,
2013-08-29, 02:58:04,VALID,918.254,VALID,0,VALID,96.8784,VALID,0,VALID,19.8018,VALID,356,VALID,0,
2013-08-29, 02:59:04,VALID,918.302,VALID,0,VALID,96.9089,VALID,0,VALID,19.8213,VALID,20,VALID,0,
2013-08-29, 03:00:04,VALID,918.263,VALID,0,VALID,96.8936,VALID,0,VALID,19.8018,VALID,1,VALID,0,
2013-08-29, 03:01:04,VALID,918.242,VALID,0,VALID,96.886,VALID,0,VALID,19.8018,VALID,26,VALID,0,
2013-08-29, 03:02:04,VALID,918.253,VALID,0,VALID,96.8784,VALID,0,VALID,19.7823,VALID,359,VALID,0,
2013-08-29, 03:03:04,VALID,918.223,VALID,0,VALID,96.9012,VALID,0,VALID,19.7823,VALID,349,VALID,0,
2013-08-29, 03:04:04,VALID,918.226,VALID,0,VALID,96.8936,VALID,0,VALID,19.7238,VALID,344,VALID,0,
2013-08-29, 03:05:04,VALID,918.194,VALID,0,VALID,96.8784,VALID,0,VALID,19.7823,VALID,344,VALID,0,
2013-08-29, 03:06:04,VALID,918.168,VALID,0,VALID,96.8784,VALID,0,VALID,19.7628,VALID,348,VALID,0,
2013-08-29, 03:07:04,VALID,918.157,VALID,0,VALID,96.8784,VALID,0,VALID,19.7238,VALID,357,VALID,0,
2013-08-29, 03:08:04,VALID,918.131,VALID,0,VALID,96.8784,VALID,0,VALID,19.7433,VALID,22,VALID,0,
2013-08-29, 03:09:04,VALID,918.088,VALID,0,VALID,96.886,VALID,0,VALID,19.7418,VALID,10,VALID,0,
2013-08-29, 03:10:04,VALID,918.082,VALID,0,VALID,96.8707,VALID,0,VALID,19.7043,VALID,10,VALID,0,
2013-08-29, 03:11:04,VALID,918.032,VALID,0,VALID,96.8631,VALID,0,VALID,19.7433,VALID,2,VALID,0,
2013-08-29, 03:12:04,VALID,918.032,VALID,0,VALID,96.8784,VALID,0,VALID,19.7433,VALID,344,VALID,0,
2013-08-29, 03:13:04,VALID,917.993,VALID,0,VALID,96.8707,VALID,0,VALID,19.7628,VALID,360,VALID,0,
2013-08-29, 03:14:04,VALID,917.959,VALID,0,VALID,96.8631,VALID,0,VALID,19.7028,VALID,2,VALID,0,
2013-08-29, 03:15:04,VALID,917.953,VALID,0,VALID,96.8479,VALID,0,VALID,19.7418,VALID,355,VALID,0,
2013-08-29, 03:16:04,VALID,917.925,VALID,0,VALID,96.886,VALID,0.107441,VALID,19.6623,VALID,360,VALID,0,
2013-08-29, 03:17:04,VALID,917.939,VALID,0,VALID,96.8403,VALID,0,VALID,19.6623,VALID,341,VALID,0,
2013-08-29, 03:18:04,VALID,917.922,VALID,0,VALID,96.8479,VALID,0,VALID,19.7223,VALID,342,VALID,0,
2013-08-29, 03:19:04,VALID,917.927,VALID,0,VALID,96.8479,VALID,0,VALID,19.6833,VALID,7,VALID,0,
2013-08-29, 03:20:04,VALID,917.936,VALID,0,VALID,96.8555,VALID,0,VALID,19.7028,VALID,7,VALID,0,
2013-08-29, 03:21:04,VALID,917.909,VALID,0,VALID,96.8403,VALID,0,VALID,19.6833,VALID,21,VALID,0,
2013-08-29, 03:22:04,VALID,917.919,VALID,0,VALID,96.8631,VALID,0,VALID,19.6833,VALID,3,VALID,0,
2013-08-29, 03:23:04,VALID,917.902,VALID,0,VALID,96.825,VALID,0,VALID,19.6443,VALID,24,VALID,0,
2013-08-29, 03:24:04,VALID,917.935,VALID,0,VALID,96.825,VALID,0,VALID,19.6638,VALID,9,VALID,0,
2013-08-29, 03:25:04,VALID,917.963,VALID,0,VALID,96.7869,VALID,0,VALID,19.6833,VALID,16,VALID,0,
2013-08-29, 03:26:04,VALID,917.983,VALID,0,VALID,96.8098,VALID,0,VALID,19.6443,VALID,17,VALID,0,
2013-08-29, 03:27:04,VALID,917.999,VALID,0,VALID,96.7793,VALID,0,VALID,19.6638,VALID,11,VALID,0,
2013-08-29, 03:28:04,VALID,918.014,VALID,0,VALID,96.7793,VALID,0,VALID,19.6053,VALID,2,VALID,0,
2013-08-29, 03:29:04,VALID,918.012,VALID,0,VALID,96.7716,VALID,0.107441,VALID,19.6038,VALID,351,VALID,0,
2013-08-29, 03:30:04,VALID,918.001,VALID,0,VALID,96.764,VALID,0,VALID,19.6443,VALID,352,VALID,0,
2013-08-29, 03:31:04,VALID,918.01,VALID,0,VALID,96.7945,VALID,0,VALID,19.6638,VALID,352,VALID,0,
2013-08-29, 03:32:04,VALID,918.035,VALID,0,VALID,96.764,VALID,0,VALID,19.7028,VALID,352,VALID,0,
2013-08-29, 03:33:04,VALID,918.029,VALID,0,VALID,96.764,VALID,0.107441,VALID,19.6623,VALID,286,VALID,0,
2013-08-29, 03:34:04,VALID,918.023,VALID,0,VALID,96.7793,VALID,0,VALID,19.7223,VALID,333,VALID,0,
2013-08-29, 03:35:04,VALID,918.065,VALID,0,VALID,96.7564,VALID,0,VALID,19.6833,VALID,357,VALID,0,
2013-08-29, 03:36:04,VALID,918.042,VALID,0,VALID,96.7564,VALID,0,VALID,19.7418,VALID,360,VALID,0,
2013-08-29, 03:37:04,VALID,918.031,VALID,0,VALID,96.7488,VALID,0.107441,VALID,19.6638,VALID,11,VALID,0,
2013-08-29, 03:38:04,VALID,918.056,VALID,0,VALID,96.7259,VALID,0,VALID,19.6638,VALID,4,VALID,0,
2013-08-29, 03:39:04,VALID,918.035,VALID,0,VALID,96.7183,VALID,0,VALID,19.6623,VALID,7,VALID,0,
2013-08-29, 03:40:04,VALID,918.053,VALID,0,VALID,96.6878,VALID,0.107441,VALID,19.6443,VALID,3,VALID,0,
2013-08-29, 03:41:04,VALID,918.041,VALID,0,VALID,96.6649,VALID,0,VALID,19.6428,VALID,1,VALID,0,
2013-08-29, 03:42:04,VALID,918.037,VALID,0,VALID,96.642,VALID,0,VALID,19.6443,VALID,1,VALID,0,
2013-08-29, 03:43:04,VALID,918.011,VALID,0,VALID,96.6344,VALID,0,VALID,19.6263,VALID,2,VALID,0,
2013-08-29, 03:44:04,VALID,918.006,VALID,0,VALID,96.6039,VALID,0.107441,VALID,19.6443,VALID,2,VALID,0,
2013-08-29, 03:45:04,VALID,917.997,VALID,0,VALID,96.6039,VALID,0.107441,VALID,19.6248,VALID,2,VALID,0,
2013-08-29, 03:46:04,VALID,917.961,VALID,0,VALID,96.6039,VALID,0,VALID,19.6428,VALID,2,VALID,0,
2013-08-29, 03:47:04,VALID,917.987,VALID,0,VALID,96.5811,VALID,0,VALID,19.6638,VALID,6,VALID,0,
2013-08-29, 03:48:04,VALID,918.026,VALID,0,VALID,96.5734,VALID,0,VALID,19.6833,VALID,6,VALID,0,
2013-08-29, 03:49:04,VALID,918.041,VALID,0,VALID,96.5582,VALID,0,VALID,19.7223,VALID,6,VALID,0,
2013-08-29, 03:50:04,VALID,918.036,VALID,0,VALID,96.5429,VALID,0.107441,VALID,19.7223,VALID,5,VALID,0,
2013-08-29, 03:51:04,VALID,918.057,VALID,0,VALID,96.5201,VALID,0,VALID,19.7028,VALID,6,VALID,0,
2013-08-29, 03:52:04,VALID,918.08,VALID,0,VALID,96.4591,VALID,0,VALID,19.7223,VALID,5,VALID,0,
2013-08-29, 03:53:04,VALID,918.067,VALID,0,VALID,96.4591,VALID,0,VALID,19.7223,VALID,5,VALID,0,
2013-08-29, 03:54:04,VALID,918.099,VALID,0,VALID,96.4057,VALID,0.107441,VALID,19.7403,VALID,6,VALID,0,
2013-08-29, 03:55:04,VALID,918.127,VALID,0,VALID,96.3905,VALID,0.107441,VALID,19.7613,VALID,5,VALID,0,
2013-08-29, 03:56:04,VALID,918.127,VALID,0,VALID,96.3447,VALID,0,VALID,19.7613,VALID,5,VALID,0,
2013-08-29, 03:57:04,VALID,918.145,VALID,0,VALID,96.3295,VALID,0,VALID,19.7808,VALID,5,VALID,0,
2013-08-29, 03:58:04,VALID,918.122,VALID,0,VALID,96.2456,VALID,0,VALID,19.7808,VALID,5,VALID,0,
2013-08-29, 03:59:04,VALID,918.129,VALID,0,VALID,96.1999,VALID,0,VALID,19.7808,VALID,1,VALID,0,
2013-08-29, 04:00:04,VALID,918.12,VALID,0,VALID,96.1389,VALID,0.107441,VALID,19.8003,VALID,360,VALID,0,